| time (UTC) | temp F | wind direction | speed MPH | gust MPH | rain 1hr in | rain 24hr in | rain mn in | humidity % | barometer mb |
| 20260506044605 | 44 | 60 | 1.0 | 9.0 | 0.11 | 1.55 | 0.07 | 96 | 1008.6 |
| 20260506043055 | 44 | 57 | 3.0 | 9.0 | 0.10 | 1.54 | 0.06 | 96 | 1008.2 |
| 20260506041554 | 45 | 35 | 1.0 | 8.0 | 0.07 | 1.51 | 0.03 | 96 | 1009.1 |
| 20260506040055 | 45 | 0 | 2.0 | 6.0 | 0.11 | 1.48 | 0.00 | 96 | 1009.2 |
| 20260506034558 | 46 | 0 | 0.0 | 3.0 | 0.16 | 1.44 | 1.44 | 96 | 1009.4 |
| 20260506033050 | 46 | 0 | 3.0 | 13.0 | 0.20 | 1.44 | 1.44 | 96 | 1007.8 |
| 20260506031557 | 46 | 68 | 3.0 | 13.0 | 0.21 | 1.44 | 1.44 | 96 | 1007.9 |
| 20260506030052 | 46 | 5 | 3.0 | 11.0 | 0.15 | 1.37 | 1.37 | 96 | 1009.0 |
| 20260506024549 | 46 | 0 | 0.0 | 5.0 | 0.06 | 1.28 | 1.28 | 96 | 1009.1 |
| 20260506023055 | 46 | 59 | 2.0 | 10.0 | 0.04 | 1.24 | 1.24 | 96 | 1008.1 |
| 20260506021557 | 46 | 61 | 2.0 | 9.0 | 0.03 | 1.23 | 1.23 | 96 | 1007.9 |
| 20260506020054 | 46 | 36 | 1.0 | 9.0 | 0.04 | 1.22 | 1.22 | 96 | 1008.0 |
| 20260506014553 | 46 | 65 | 4.0 | 9.0 | 0.05 | 1.21 | 1.21 | 96 | 1008.2 |
| 20260506013055 | 46 | 46 | 2.0 | 6.0 | 0.05 | 1.20 | 1.20 | 96 | 1008.2 |
| 20260506011553 | 47 | 48 | 2.0 | 6.0 | 0.09 | 1.20 | 1.20 | 96 | 1008.1 |
| 20260506010057 | 47 | 24 | 0.0 | 3.0 | 0.09 | 1.17 | 1.17 | 96 | 1008.1 |
| 20260506004554 | 47 | 65 | 2.0 | 6.0 | 0.12 | 1.16 | 1.16 | 96 | 1008.0 |
| 20260506003052 | 47 | 55 | 2.0 | 9.0 | 0.13 | 1.15 | 1.15 | 96 | 1007.8 |
| 20260506001605 | 47 | 43 | 3.0 | 8.0 | 0.13 | 1.11 | 1.11 | 96 | 1008.0 |
| 20260506000058 | 47 | 0 | 0.0 | 5.0 | 0.14 | 1.09 | 1.09 | 96 | 1008.1 |
| 20260505234610 | 48 | 76 | 0.0 | 4.0 | 0.10 | 1.04 | 1.04 | 96 | 1008.1 |
| 20260505233055 | 48 | 0 | 1.0 | 8.0 | 0.09 | 1.01 | 1.01 | 96 | 1007.8 |
| 20260505231556 | 49 | 69 | 0.0 | 3.0 | 0.08 | 0.98 | 0.98 | 96 | 1008.0 |
| 20260505230058 | 49 | 0 | 0.0 | 2.0 | 0.05 | 0.95 | 0.95 | 96 | 1008.2 |
| 20260505224611 | 49 | 207 | 0.0 | 3.0 | 0.06 | 0.94 | 0.94 | 95 | 1008.3 |
| 20260505223106 | 50 | 67 | 0.0 | 4.0 | 0.07 | 0.92 | 0.92 | 96 | 1008.1 |
| 20260505221608 | 51 | 0 | 0.0 | 4.0 | 0.07 | 0.90 | 0.90 | 95 | 1008.0 |
| 20260505220112 | 52 | 60 | 0.0 | 4.0 | 0.06 | 0.89 | 0.89 | 95 | 1007.9 |
| 20260505214602 | 53 | 0 | 0.0 | 4.0 | 0.05 | 0.88 | 0.88 | 94 | 1007.8 |
| 20260505213055 | 58 | 224 | 0.0 | 4.0 | 0.03 | 0.85 | 0.85 | 96 | 1007.1 |
| 20260505211622 | 58 | 206 | 1.0 | 7.0 | 0.01 | 0.83 | 0.83 | 96 | 1006.9 |
| 20260505210056 | 58 | 211 | 2.0 | 6.0 | 0.02 | 0.83 | 0.83 | 96 | 1006.9 |
| 20260505204556 | 58 | 215 | 1.0 | 8.0 | 0.03 | 0.83 | 0.83 | 96 | 1007.0 |
| 20260505203116 | 58 | 153 | 1.0 | 7.0 | 0.04 | 0.82 | 0.82 | 96 | 1007.1 |
| 20260505201555 | 58 | 196 | 1.0 | 8.0 | 0.07 | 0.82 | 0.82 | 95 | 1007.0 |
| 20260505200050 | 58 | 194 | 1.0 | 5.0 | 0.07 | 0.81 | 0.81 | 96 | 1006.9 |
| 20260505194551 | 59 | 200 | 0.0 | 5.0 | 0.10 | 0.80 | 0.80 | 95 | 1007.0 |
| 20260505193050 | 59 | 233 | 0.0 | 4.0 | 0.12 | 0.78 | 0.78 | 95 | 1007.4 |
| 20260505191554 | 58 | 0 | 0.0 | 3.0 | 0.11 | 0.75 | 0.75 | 95 | 1007.7 |
| 20260505190051 | 59 | 0 | 0.0 | 4.0 | 0.10 | 0.74 | 0.74 | 94 | 1007.7 |
| 20260505184556 | 59 | 0 | 2.0 | 4.0 | 0.06 | 0.70 | 0.70 | 94 | 1008.1 |
| 20260505183052 | 60 | 234 | 2.0 | 8.0 | 0.02 | 0.66 | 0.66 | 93 | 1008.3 |
| 20260505181550 | 61 | 227 | 2.0 | 8.0 | 0.00 | 0.64 | 0.64 | 91 | 1008.1 |
| 20260505180057 | 61 | 266 | 3.0 | 8.0 | 0.00 | 0.64 | 0.64 | 89 | 1007.9 |
| 20260505174551 | 61 | 242 | 3.0 | 7.0 | 0.00 | 0.64 | 0.64 | 89 | 1008.2 |
| 20260505173049 | 61 | 210 | 2.0 | 7.0 | 0.00 | 0.64 | 0.64 | 89 | 1008.1 |
| 20260505171556 | 62 | 261 | 2.0 | 6.0 | 0.00 | 0.64 | 0.64 | 88 | 1008.3 |
| 20260505170051 | 62 | 236 | 1.0 | 9.0 | 0.00 | 0.64 | 0.64 | 89 | 1008.2 |
| 20260505164553 | 62 | 232 | 2.0 | 4.0 | 0.00 | 0.64 | 0.64 | 88 | 1008.5 |
| 20260505163049 | 62 | 246 | 2.0 | 4.0 | 0.00 | 0.64 | 0.64 | 89 | 1008.2 |
| 20260505161551 | 62 | 216 | 1.0 | 4.0 | 0.00 | 0.64 | 0.64 | 89 | 1008.4 |
| 20260505153053 | 61 | 276 | 7.0 | 13.0 | 0.00 | 0.64 | 0.64 | 90 | 1008.7 |
| 20260505151551 | 61 | 279 | 4.0 | 11.0 | 0.00 | 0.64 | 0.64 | 89 | 1008.6 |
| 20260505124608 | 56 | 0 | 1.0 | 8.0 | 0.00 | 0.64 | 0.64 | 96 | 1007.5 |
| 20260505123105 | 55 | 200 | 2.0 | 11.0 | 0.00 | 0.64 | 0.64 | 96 | 1007.7 |
| 20260505121551 | 55 | 255 | 1.0 | 8.0 | 0.00 | 0.64 | 0.64 | 96 | 1007.4 |
| 20260505120108 | 54 | 208 | 0.0 | 4.0 | 0.00 | 0.64 | 0.64 | 96 | 1006.9 |
| 20260505114558 | 54 | 0 | 0.0 | 6.0 | 0.00 | 0.64 | 0.64 | 96 | 1006.9 |
| 20260505113102 | 54 | 200 | 0.0 | 4.0 | 0.00 | 0.64 | 0.64 | 96 | 1007.1 |
| 20260505111556 | 54 | 0 | 0.0 | 5.0 | 0.00 | 0.64 | 0.64 | 96 | 1007.1 |
| 20260505101557 | 54 | 0 | 0.0 | 4.0 | 0.02 | 0.64 | 0.64 | 96 | 1006.0 |
| 20260505100100 | 54 | 0 | 2.0 | 13.0 | 0.01 | 0.63 | 0.63 | 96 | 1005.3 |
| 20260505094602 | 54 | 140 | 3.0 | 12.0 | 0.02 | 0.63 | 0.63 | 96 | 1004.9 |
| 20260505093056 | 54 | 182 | 3.0 | 11.0 | 0.04 | 0.63 | 0.63 | 96 | 1005.6 |
| 20260505091607 | 54 | 103 | 1.0 | 6.0 | 0.05 | 0.62 | 0.62 | 96 | 1005.6 |
| 20260505090058 | 54 | 194 | 0.0 | 3.0 | 0.08 | 0.62 | 0.62 | 95 | 1006.9 |
| 20260505084606 | 54 | 0 | 0.0 | 3.0 | 0.21 | 0.61 | 0.61 | 95 | 1007.8 |
| 20260505083103 | 54 | 0 | 0.0 | 0.0 | 0.24 | 0.58 | 0.58 | 95 | 1007.9 |
| 20260505081557 | 55 | 0 | 1.0 | 3.0 | 0.34 | 0.57 | 0.57 | 95 | 1008.1 |
| 20260505080056 | 55 | 0 | 1.0 | 3.0 | 0.37 | 0.52 | 0.52 | 95 | 1008.0 |
| 20260505074553 | 55 | 0 | 0.0 | 1.0 | 0.31 | 0.40 | 0.40 | 95 | 1007.3 |
| 20260505073056 | 55 | 0 | 0.0 | 3.0 | 0.29 | 0.35 | 0.35 | 94 | 1007.2 |
| 20260505071554 | 55 | 65 | 1.0 | 4.0 | 0.20 | 0.23 | 0.23 | 94 | 1006.5 |
| 20260505070104 | 56 | 0 | 0.0 | 1.0 | 0.16 | 0.16 | 0.16 | 93 | 1007.3 |
| 20260505064557 | 56 | 0 | 0.0 | 2.0 | 0.09 | 0.09 | 0.09 | 92 | 1007.5 |
| 20260505063052 | 57 | 0 | 0.0 | 8.0 | 0.06 | 0.06 | 0.06 | 91 | 1007.8 |
| 20260505061625 | 60 | 313 | 2.0 | 27.0 | 0.02 | 0.02 | 0.02 | 86 | 1007.5 |
| 20260505060059 | 65 | 278 | 13.0 | 27.0 | 0.00 | 0.00 | 0.00 | 72 | 1007.4 |
| 20260505054556 | 65 | 238 | 3.0 | 16.0 | 0.00 | 0.00 | 0.00 | 68 | 1005.7 |
| 20260505053056 | 64 | 217 | 4.0 | 12.0 | 0.00 | 0.00 | 0.00 | 68 | 1004.7 |